Regional Weather Roundup
Issued by NWS Charleston, SC

Current Version | Previous Version | Graphics & Text | Print | Product List | Glossary On
Versions: 1 2 3 4 5 6 7 8 9 10 11 12 13 14 15 16 17 18 19 20 21 22 23 24 25 26 27 28 29 30 31 32 33 34 35 36 37 38 39 40 41 42 43 44 45 46 47 48 49 50
000 ASUS42 KCHS 261312 RWRCHS REGIONAL WEATHER ROUNDUP NATIONAL WEATHER SERVICE CHARLESTON SC 900 AM EDT WED APR 26 2017 NOTE: "FAIR" INDICATES FEW OR NO CLOUDS BELOW 12,000 FEET WITH NO SIGNIFICANT WEATHER AND/OR OBSTRUCTIONS TO VISIBILITY. NOT ALL STATIONS ARE QUALITY CONTROLLED. USE DATA WITH CAUTION... ESPECIALLY DEWPOINT OBSERVATIONS. SCZ027-030-031-034>040-042>050-261400- ...SOUTHEAST SOUTH CAROLINA... CITY SKY/WX TMP DP RH WIND PRES REMARKS N CHARLESTON MOSUNNY 72 67 84 SW7 29.83R WATERFRONT PRK N/A 72 70 93 SW5 29.81R JOHNS ISLAND FAIR 73 68 83 W7 29.84R PINOPOLIS N/A 72 66 83 VRB3 29.74R MONCKS CORNER FAIR 70 64 83 SW6 29.83R SUMMERVILLE FAIR 68 64 88 SW3 29.84R BEAUFORT MCAS SUNNY 71 62 73 SW6 29.84R BEAUFORT ARPT FAIR 70 61 73 W6 29.84R HILTON HEAD IS SUNNY 72 61 68 SW9 29.84R WALTERBORO SUNNY 66 61 82 SW7 29.85R ALLENDALE FAIR 68 61 77 CALM 29.83R ...SOUTHERN MIDLANDS AND PEE DEE... CITY SKY/WX TMP DP RH WIND PRES REMARKS GEORGETOWN FAIR 70 66 88 E3 29.85R KINGSTREE FAIR 68 61 77 E5 29.84R ORANGEBURG SUNNY 66 62 87 SW5 29.83R BARNWELL FAIR 68 63 83 SW7 29.84R AIKEN FAIR 64 61 88 SW5 29.87R MANNING FAIR 68 63 83 SW13 29.83R COLUMBIA SUNNY 68 61 78 CALM 29.82R SUMTER SUNNY 67 61 81 S6 29.81R FLORENCE SUNNY 64 60 87 E5 29.84R MYRTLE BEACH PTSUNNY 64 61 88 MISG 29.85R N MYRTLE BEACH CLOUDY 67 61 81 NE3 29.84R $$ GAZ063-065-086>088-099>101-113>116-118-119-134>141-150-261400- ...SOUTHEAST GEORGIA... CITY SKY/WX TMP DP RH WIND PRES REMARKS SAVANNAH ARPT SUNNY 70 58 65 W8 29.84S HUNTER AAF SUNNY 70 63 80 W7 29.82R FORT STEWART MOSUNNY 68 59 73 W6 29.83R STATESBORO SUNNY 68 60 75 W5 29.85R SYLVANIA SUNNY N/A N/A N/A W5 29.85R CLAXTON FAIR 67 67 99 SW7 29.85R ...CSRA...CENTRAL AND FAR SOUTHEAST GEORGIA... CITY SKY/WX TMP DP RH WIND PRES REMARKS THOMSON SUNNY 64 60 84 CALM 29.89R AUGUSTA-BUSH SUNNY 65 61 87 W5 29.82R AUGUSTA-DANIEL SUNNY 67 58 72 SW3 29.84R SWAINSBORO FAIR 64 61 88 W6 29.86R VIDALIA SUNNY 68 61 77 W7 29.85R EASTMAN FAIR 68 53 59 CALM 29.88R HAZLEHURST FAIR 69 63 82 W3 29.85R ALMA SUNNY 66 61 84 W5 29.85R WAYCROSS SUNNY 68 65 88 W6 29.86R JESUP FAIR 66 57 72 W3 29.86R BAXLEY FAIR 68 66 94 W6 29.86R BRUNSWICK SUNNY 68 63 83 SW6 29.88R SAINT SIMONS SUNNY 67 59 75 SW8 29.86S HAZE $$ SCZ027-028-034-036>038-045-046-048>050-GAZ119-141-261400- ...LAKE AND SUPPLEMENTAL COASTAL OBSERVATIONS... STATION/POSITION TIME TEMP WIND PRES WAVE SWELL AIR SEA DIR/SP/G HT/PER HT/PER/DIR (UTC) (F) (DEG/KT/KT) (MB) (FT/S) (FT/S/D) WINYAH BAY NOT AVBL LAKE MURRAY 1220 67 200/ 5/ 6 1008.8 ACE BASIN NERRS NOT AVBL FORT PULASKI 1242 69 73 270/ 5/ 6 1010.9R SAPELO ISLAND 1200 65 260/ 5 1011.0 $$ ANZ835-935-AMZ111-154-330-350-352-354-370-450-454-472-261400- ...C-MAN AND BUOY OBSERVATIONS... STATION/POSITION TIME TEMP WIND PRES WAVE SWELL AIR SEA DIR/SP/G HT/PER HT/PER/DIR (UTC) (F) (DEG/KT/KT) (MB) (FT/S) (FT/S/D) BUOY 41004 1250 72 73 220/ 10/ 12 1010.1R 4/ 9 3/110/ 9 BUOY 41008 1150 69 71 260/ 10/ 12 1010.0 3/ 9 2/ 90/ 9 FOLLY BEACH CMAN 1200 71 180/ 8/ 10 1010.1R CAPERS NEARSHORE 1208 72 71 200/ 10/ 14 1009.3R FRIPP NEARSHORE 1208 70 70 270/ 10/ 14 1009.8R STATION/POSITION TIME TEMP WIND PRES WAVE SWELL AIR SEA DIR/SP/G HT/PER HT/PER/DIR (UTC) (F) (DEG/KT/KT) (MB) (FT/S) (FT/S/D) 5E ST. MARYS GA 1230 72 N/A 2/10 2/110/11 FRYING PAN BUOY 1250 69 74 310/ 6/ 8 1010.4R 4/10 3/130/10 BUOY 41025 1150 69 77 270/ 14/ 17 1007.9 7/10 5/140/10 CAPE LOOKOUT NC 1200 63 290/ 12/ 13 1008.8R BUOY 41002 1150 73 75 220/ 16/ 19 1010.7 8/ 9 5/110/ 9 BUOY 41010 1250 76 77 160/ 14/ 17 1012.0R 4/ 8 3/110/ 8 ST AUGUSTINE FL 1200 65 73 210/ 6/ 8 1012.6R $$

USA.gov is the U.S. government's official web portal to all federal, state and local government web resources and services.